This is the latest recevied weather packets stored in our database for station/object N1HQ. If no packets are shown the sender has not sent any weather packets the latest 10 day(s).
| Time | Temp. | Humidity | Pressure | Rain* | Wind** | Luminosity | Snow |
|---|---|---|---|---|---|---|---|
| 1787863295 | 25° C | 98% | 1012.3 hPa | 0 mm | - | - | - |
| 1787863017 | 24.44° C | 98% | 1012.5 hPa | 0 mm | - | - | - |
| 1787862743 | 25° C | 98% | 1012.6 hPa | 0 mm | - | - | - |
| 1787862493 | 25° C | 98% | 1012.8 hPa | 0 mm | - | - | - |
| 1787862214 | 25° C | 98% | 1013 hPa | 0 mm | - | - | - |
| 1787861931 | 25° C | 98% | 1013.2 hPa | 0 mm | - | - | - |
| 1787861678 | 25° C | 98% | 1013.2 hPa | 0 mm | - | - | - |
| 1787861380 | 25° C | 97% | 1013.2 hPa | 0 mm | - | - | - |
| 1787861091 | 25° C | 97% | 1013.4 hPa | 0 mm | - | - | - |
| 1787860838 | 25° C | 97% | 1013.6 hPa | 0 mm | - | - | - |
| 1787860578 | 25° C | 97% | 1013.7 hPa | 0 mm | - | - | - |
| 1787860326 | 25° C | 96% | 1013.7 hPa | 0 mm | - | - | - |
| 1787860051 | 25° C | 96% | 1013.6 hPa | 0 mm | - | - | - |
| 1787859788 | 25° C | 95% | 1013.6 hPa | 0 mm | - | - | - |
| 1787859518 | 25° C | 95% | 1013.5 hPa | 0 mm | - | - | - |
| 1787859251 | 25.56° C | 95% | 1013.4 hPa | 0 mm | - | - | - |
| 1787858988 | 25.56° C | 94% | 1013.5 hPa | 0 mm | - | - | - |
| 1787858733 | 25.56° C | 94% | 1013.5 hPa | 0 mm | - | - | - |
| 1787858468 | 25.56° C | 94% | 1013.6 hPa | 0 mm | - | - | - |
| 1787858168 | 25.56° C | 94% | 1013.5 hPa | 0 mm | - | - | - |
| 1787857913 | 25.56° C | 94% | 1013.5 hPa | 0 mm | - | - | - |
| 1787857623 | 26.11° C | 93% | 1013.4 hPa | 0 mm | - | - | - |
| 1787857363 | 26.67° C | 92% | 1013.4 hPa | 0 mm | - | - | - |
| 1787857123 | 26.67° C | 91% | 1013.4 hPa | 0 mm | - | - | - |
| 1787856828 | 27.22° C | 89% | 1013.2 hPa | 0 mm | - | - | - |
* Rain latest hour (hover to see other rain measurements)
** Current wind speed in m/s (hover to see current wind gust speed)